K5IDL Weather Reports


time (UTC)temp
C
wind
direction
speed
KPH
gust
KPH
rain 1hr
cm
rain 24hr
cm
rain mn
cm
humidity
%
barometer
mb
20260906231433 36 344 1.6 3.2 0.00 0.00 0.00 42 1012.1
20260906230932 36 359 0.0 1.6 0.00 0.00 0.00 42 1012.1
20260906230749 36 11 1.6 3.2 0.00 0.00 0.00 42 1012.4
20260906230427 36 8 1.6 1.6 0.00 0.00 0.00 42 1012.1
20260906225926 36 339 0.0 0.0 0.00 0.00 0.00 43 1012.2
20260906225601 36 15 0.0 1.6 0.00 0.00 0.00 41 1012.4
20260906225421 36 259 0.0 1.6 0.00 0.00 0.00 42 1012.1
20260906224917 36 49 0.0 1.6 0.00 0.00 0.00 42 1012.2
20260906224413 36 20 0.0 1.6 0.00 0.00 0.00 42 1012.1
20260906223909 36 291 1.6 3.2 0.00 0.00 0.00 42 1012.3
20260906223405 36 10 1.6 1.6 0.00 0.00 0.00 41 1012.2
20260906223224 36 352 0.0 1.6 0.00 0.00 0.00 41 1012.6
20260906222902 36 358 0.0 0.0 0.00 0.00 0.00 41 1012.3
20260906222402 36 335 0.0 1.6 0.00 0.00 0.00 42 1012.3
20260906221933 36 349 1.6 3.2 0.00 0.00 0.00 42 1012.7
20260906221859 36 27 1.6 3.2 0.00 0.00 0.00 42 1012.2
20260906221354 36 32 1.6 3.2 0.00 0.00 0.00 41 1012.4
20260906220849 36 32 0.0 0.0 0.00 0.00 0.00 42 1012.4
20260906220746 36 0.0 0.0 0.00 0.00 0.00 43 1012.6
20260906220344 36 37 0.0 1.6 0.00 0.00 0.00 42 1012.3
20260906215843 36 47 3.2 4.8 0.00 0.00 0.00 42 1012.2
20260906215722 36 18 3.2 9.7 0.00 0.00 0.00 43 1012.5
20260906215339 36 18 1.6 3.2 0.00 0.00 0.00 43 1012.1
20260906214836 36 29 1.6 1.6 0.00 0.00 0.00 43 1012.2
20260906214410 36 46 3.2 6.4 0.00 0.00 0.00 42 1012.6
20260906214331 36 328 3.2 3.2 0.00 0.00 0.00 42 1012.2
20260906213830 36 42 1.6 1.6 0.00 0.00 0.00 42 1012.3
20260906213325 36 24 0.0 1.6 0.00 0.00 0.00 42 1012.3
20260906213221 36 31 1.6 6.4 0.00 0.00 0.00 42 1012.8
20260906212822 36 127 0.0 1.6 0.00 0.00 0.00 42 1012.5
20260906212318 36 46 4.8 9.7 0.00 0.00 0.00 43 1013.0
20260906211928 36 41 1.6 4.8 0.00 0.00 0.00 43 1013.0
20260906211817 36 45 3.2 4.8 0.00 0.00 0.00 42 1012.8
20260906211313 36 5 1.6 3.2 0.00 0.00 0.00 42 1012.8
20260906210812 36 354 1.6 3.2 0.00 0.00 0.00 43 1013.0
20260906210741 36 10 0.0 3.2 0.00 0.00 0.00 42 1013.3
20260906210307 36 34 1.6 1.6 0.00 0.00 0.00 44 1013.1
20260906205802 36 17 0.0 0.0 0.00 0.00 0.00 42 1013.0
20260906205259 36 220 1.6 3.2 0.00 0.00 0.00 42 1013.2
20260906204754 36 324 1.6 4.8 0.00 0.00 0.00 43 1013.4
20260906204401 36 68 1.6 3.2 0.00 0.00 0.00 42 1013.4
20260906204253 36 78 3.2 3.2 0.00 0.00 0.00 43 1013.1
20260906203752 36 4 1.6 3.2 0.00 0.00 0.00 42 1013.4
20260906203249 36 151 1.6 4.8 0.00 0.00 0.00 43 1013.5
20260906203211 36 18 0.0 1.6 0.00 0.00 0.00 44 1013.7
20260906202745 36 17 3.2 4.8 0.00 0.00 0.00 43 1013.7
20260906202244 36 2 0.0 1.6 0.00 0.00 0.00 43 1013.8
20260906202023 36 26 0.0 1.6 0.00 0.00 0.00 42 1013.9
20260906201739 36 10 0.0 0.0 0.00 0.00 0.00 42 1013.5
20260906201238 36 68 3.2 4.8 0.00 0.00 0.00 42 1013.6
20260906200753 36 360 1.6 3.2 0.00 0.00 0.00 44 1013.8
20260906200734 36 339 3.2 3.2 0.00 0.00 0.00 44 1013.7
20260906200230 35 42 1.6 1.6 0.00 0.00 0.00 45 1013.8
20260906195733 36 65 3.2 6.4 0.00 0.00 0.00 44 1014.1
20260906195726 35 25 1.6 3.2 0.00 0.00 0.00 45 1013.8
20260906195222 36 29 4.8 6.4 0.00 0.00 0.00 44 1013.6
20260906194717 36 36 0.0 0.0 0.00 0.00 0.00 45 1014.0
20260906194359 36 55 1.6 6.4 0.00 0.00 0.00 46 1014.3
20260906194213 36 66 4.8 6.4 0.00 0.00 0.00 45 1014.0
20260906193708 36 42 1.6 3.2 0.00 0.00 0.00 45 1013.8
20260906193211 36 18 1.6 3.2 0.00 0.00 0.00 46 1014.3
20260906193202 36 301 4.8 9.7 0.00 0.00 0.00 45 1014.1
20260906192658 36 36 8.0 11.3 0.00 0.00 0.00 46 1014.1
20260906192158 36 29 4.8 11.3 0.00 0.00 0.00 45 1014.0
20260906192024 36 36 1.6 3.2 0.00 0.00 0.00 46 1014.4
20260906191653 36 1 1.6 1.6 0.00 0.00 0.00 46 1014.1
20260906191152 36 62 3.2 3.2 0.00 0.00 0.00 45 1014.3
20260906190752 36 5 3.2 6.4 0.00 0.00 0.00 47 1014.6
20260906190646 36 300 1.6 1.6 0.00 0.00 0.00 47 1014.3
20260906190141 36 1 0.0 3.2 0.00 0.00 0.00 47 1014.5
20260906185648 36 330 1.6 3.2 0.00 0.00 0.00 47 1014.7
20260906185640 36 33 1.6 3.2 0.00 0.00 0.00 45 1014.4
20260906185139 36 67 3.2 4.8 0.00 0.00 0.00 48 1014.5
20260906184634 36 96 3.2 9.7 0.00 0.00 0.00 47 1014.8
20260906184358 35 14 1.6 4.8 0.00 0.00 0.00 48 1014.8
20260906184130 35 42 4.8 4.8 0.00 0.00 0.00 47 1014.4
20260906183626 35 4 6.4 6.4 0.00 0.00 0.00 48 1014.5
20260906183211 36 3 0.0 1.6 0.00 0.00 0.00 47 1015.0
20260906183121 36 54 1.6 1.6 0.00 0.00 0.00 47 1014.6
20260906182616 36 358 0.0 0.0 0.00 0.00 0.00 47 1014.8
20260906182112 37 303 0.0 1.6 0.00 0.00 0.00 46 1014.7
20260906182024 36 207 0.0 3.2 0.00 0.00 0.00 47 1015.2
20260906181607 36 46 0.0 0.0 0.00 0.00 0.00 48 1014.8
20260906181103 36 353 1.6 1.6 0.00 0.00 0.00 48 1014.9
20260906180752 36 18 3.2 6.4 0.00 0.00 0.00 50 1015.2
20260906180603 35 26 3.2 4.8 0.00 0.00 0.00 50 1014.9
20260906175601 37 251 3.2 6.4 0.00 0.00 0.00 47 1015.2
20260906175545 37 98 3.2 4.8 0.00 0.00 0.00 46 1015.5
20260906175056 36 270 1.6 1.6 0.00 0.00 0.00 50 1015.4
20260906174554 36 66 0.0 0.0 0.00 0.00 0.00 49 1015.2
20260906174400 36 0.0 0.0 0.00 0.00 0.00 50 1015.7
20260906174049 36 332 1.6 3.2 0.00 0.00 0.00 49 1015.2
20260906173544 35 347 0.0 0.0 0.00 0.00 0.00 51 1015.3
20260906173209 35 22 0.0 1.6 0.00 0.00 0.00 50 1015.7
20260906173040 35 8 0.0 1.6 0.00 0.00 0.00 50 1015.3
20260906172534 36 358 1.6 1.6 0.00 0.00 0.00 48 1015.5
20260906172030 36 33 0.0 1.6 0.00 0.00 0.00 48 1015.7
20260906172023 36 327 1.6 3.2 0.00 0.00 0.00 49 1016.1
20260906171524 36 6 1.6 3.2 0.00 0.00 0.00 50 1015.6
20260906171020 36 47 0.0 1.6 0.00 0.00 0.00 49 1015.8
20260906170730 36 358 1.6 3.2 0.00 0.00 0.00 50 1016.1
20260906170516 36 331 0.0 1.6 0.00 0.00 0.00 51 1015.7
20260906170014 36 34 0.0 1.6 0.00 0.00 0.00 50 1015.9
20260906165625 34 38 0.0 1.6 0.00 0.00 0.00 52 1016.3
20260906165512 35 33 0.0 0.0 0.00 0.00 0.00 51 1016.0
20260906165007 35 228 1.6 1.6 0.00 0.00 0.00 52 1016.0
20260906164506 34 355 0.0 0.0 0.00 0.00 0.00 54 1015.8
20260906164354 33 49 0.0 1.6 0.00 0.00 0.00 52 1016.2
20260906164002 33 0 0.0 1.6 0.00 0.00 0.00 54 1015.9
20260906163457 34 36 0.0 1.6 0.00 0.00 0.00 51 1015.9
20260906163205 35 14 1.6 3.2 0.00 0.00 0.00 51 1016.3
20260906162956 35 37 0.0 1.6 0.00 0.00 0.00 52 1015.9
20260906162454 35 140 1.6 4.8 0.00 0.00 0.00 50 1015.8
20260906162019 33 45 3.2 4.8 0.00 0.00 0.00 55 1016.2
20260906161949 33 349 1.6 3.2 0.00 0.00 0.00 55 1015.9
20260906161449 33 32 1.6 1.6 0.00 0.00 0.00 54 1015.8
20260906160949 33 23 4.8 4.8 0.00 0.00 0.00 56 1015.7
20260906160722 34 34 4.8 11.3 0.00 0.00 0.00 55 1016.1
20260906160442 34 355 0.0 0.0 0.00 0.00 0.00 54 1015.8
20260906155941 35 33 0.0 1.6 0.00 0.00 0.00 53 1015.8
20260906155536 33 12 1.6 3.2 0.00 0.00 0.00 58 1015.9
20260906155439 33 54 1.6 3.2 0.00 0.00 0.00 58 1015.7
20260906154936 33 67 4.8 4.8 0.00 0.00 0.00 56 1015.6
20260906154450 33 46 3.2 9.7 0.00 0.00 0.00 60 1016.0
20260906154431 33 350 3.2 4.8 0.00 0.00 0.00 59 1015.6
20260906153929 34 32 1.6 1.6 0.00 0.00 0.00 56 1015.8
20260906153428 34 1 0.0 0.0 0.00 0.00 0.00 58 1015.7
20260906153200 33 1 1.6 3.2 0.00 0.00 0.00 61 1016.0
20260906152923 33 350 0.0 0.0 0.00 0.00 0.00 62 1015.7
20260906152418 32 346 0.0 0.0 0.00 0.00 0.00 64 1015.6
20260906152015 32 20 0.0 1.6 0.00 0.00 0.00 64 1015.8
20260906151917 32 5 1.6 1.6 0.00 0.00 0.00 65 1015.7
20260906151413 32 43 0.0 1.6 0.00 0.00 0.00 64 1015.6
20260906150909 33 25 1.6 1.6 0.00 0.00 0.00 65 1015.4
20260906150741 33 14 0.0 1.6 0.00 0.00 0.00 64 1015.8
20260906150404 33 73 1.6 3.2 0.00 0.00 0.00 63 1015.4
20260906145903 32 36 0.0 1.6 0.00 0.00 0.00 66 1015.4
20260906145538 32 21 0.0 1.6 0.00 0.00 0.00 67 1015.7
20260906145356 32 34 0.0 1.6 0.00 0.00 0.00 67 1015.4
20260906144851 32 42 0.0 0.0 0.00 0.00 0.00 67 1015.4
20260906144451 33 0.0 0.0 0.00 0.00 0.00 65 1015.7
20260906144346 33 5 0.0 0.0 0.00 0.00 0.00 63 1015.4
20260906143840 31 8 0.0 0.0 0.00 0.00 0.00 67 1015.4
20260906143336 32 4 0.0 0.0 0.00 0.00 0.00 68 1015.6
20260906143200 31 0.0 0.0 0.00 0.00 0.00 68 1015.8
20260906142832 31 30 0.0 0.0 0.00 0.00 0.00 70 1015.6
20260906142326 31 61 0.0 0.0 0.00 0.00 0.00 70 1015.7
20260906142053 31 45 1.6 3.2 0.00 0.00 0.00 70 1015.9
20260906141821 31 12 0.0 0.0 0.00 0.00 0.00 70 1015.5
20260906141316 30 337 0.0 0.0 0.00 0.00 0.00 71 1015.7
20260906140814 31 20 0.0 0.0 0.00 0.00 0.00 70 1015.6
20260906140721 31 18 0.0 1.6 0.00 0.00 0.00 70 1015.9
20260906140309 30 3 0.0 0.0 0.00 0.00 0.00 71 1015.6
20260906135807 30 20 0.0 0.0 0.00 0.00 0.00 73 1015.4
20260906135534 30 14 0.0 1.6 0.00 0.00 0.00 75 1015.7
20260906135305 30 16 0.0 0.0 0.00 0.00 0.00 75 1015.5
20260906134757 30 355 0.0 0.0 0.00 0.00 0.00 74 1015.3
20260906134450 30 54 0.0 1.6 0.00 0.00 0.00 76 1015.6
20260906134252 30 8 0.0 0.0 0.00 0.00 0.00 76 1015.3
20260906133748 30 4 1.6 1.6 0.00 0.00 0.00 76 1015.4
20260906133244 29 10 0.0 0.0 0.00 0.00 0.00 77 1015.2
20260906133158 28 35 0.0 3.2 0.00 0.00 0.00 78 1015.7
20260906132738 29 19 0.0 0.0 0.00 0.00 0.00 77 1015.3
20260906132233 30 4 0.0 0.0 0.00 0.00 0.00 74 1015.4
20260906132011 30 0.0 0.0 0.00 0.00 0.00 75 1015.9
20260906131729 30 23 0.0 0.0 0.00 0.00 0.00 76 1015.7
20260906131224 30 12 0.0 0.0 0.00 0.00 0.00 72 1015.4
20260906130721 30 0.0 0.0 0.00 0.00 0.00 76 1015.7
20260906130214 29 1 0.0 0.0 0.00 0.00 0.00 77 1015.4
20260906125713 28 1 0.0 0.0 0.00 0.00 0.00 79 1015.1
20260906125554 28 0.0 0.0 0.00 0.00 0.00 80 1015.4
20260906125211 28 4 0.0 0.0 0.00 0.00 0.00 80 1015.1
20260906124707 27 3 0.0 0.0 0.00 0.00 0.00 84 1015.2
20260906124527 26 0.0 0.0 0.00 0.00 0.00 88 1015.5
20260906124202 26 1 0.0 0.0 0.00 0.00 0.00 89 1015.1
20260906123701 25 359 0.0 0.0 0.00 0.00 0.00 89 1015.3
20260906123156 25 1 0.0 0.0 0.00 0.00 0.00 89 1015.1
20260906123153 25 0.0 0.0 0.00 0.00 0.00 89 1015.4
20260906122655 25 4 0.0 0.0 0.00 0.00 0.00 89 1015.1
20260906122151 25 358 0.0 0.0 0.00 0.00 0.00 89 1015.0
20260906122028 25 0.0 0.0 0.00 0.00 0.00 90 1015.4
20260906121647 25 359 0.0 0.0 0.00 0.00 0.00 89 1015.1
20260906121143 25 4 0.0 0.0 0.00 0.00 0.00 89 1014.8
20260906120819 25 0.0 0.0 0.00 0.00 0.00 89 1015.1
20260906120639 25 1 0.0 0.0 0.00 0.00 0.00 89 1014.9
20260906120136 25 4 0.0 0.0 0.00 0.00 0.00 89 1014.7
20260906115631 25 1 0.0 0.0 0.00 0.00 0.00 89 1014.8
20260906115528 25 0.0 0.0 0.00 0.00 0.00 89 1015.0
20260906115126 25 357 0.0 0.0 0.00 0.00 0.00 90 1014.6
20260906114619 25 1 0.0 0.0 0.00 0.00 0.00 88 1014.5
20260906114445 25 0.0 0.0 0.00 0.00 0.00 88 1014.9
20260906114115 25 358 0.0 0.0 0.00 0.00 0.00 88 1014.6
20260906113615 25 355 0.0 0.0 0.00 0.00 0.00 88 1014.8
20260906113155 26 0.0 0.0 0.00 0.00 0.00 88 1014.8
20260906113115 26 7 0.0 0.0 0.00 0.00 0.00 88 1014.6
20260906112614 26 0 0.0 0.0 0.00 0.00 0.00 87 1014.4
20260906112111 26 0 0.0 0.0 0.00 0.00 0.00 87 1014.4
20260906112004 26 0.0 0.0 0.00 0.00 0.00 87 1014.8
20260906111610 26 4 0.0 0.0 0.00 0.00 0.00 87 1014.4
20260906111106 26 3 0.0 0.0 0.00 0.00 0.00 87 1014.5
20260906110817 26 0.0 0.0 0.00 0.00 0.00 87 1014.6
20260906110605 26 5 0.0 0.0 0.00 0.00 0.00 87 1014.3
20260906110100 25 2 0.0 0.0 0.00 0.00 0.00 88 1014.3
20260906105555 26 9 0.0 0.0 0.00 0.00 0.00 88 1014.3
20260906105547 26 0.0 0.0 0.00 0.00 0.00 88 1014.5
20260906105051 26 5 0.0 0.0 0.00 0.00 0.00 87 1014.2
20260906104550 26 357 0.0 0.0 0.00 0.00 0.00 87 1014.3
20260906104443 26 0.0 0.0 0.00 0.00 0.00 87 1014.4
20260906104044 26 349 0.0 0.0 0.00 0.00 0.00 87 1014.1
20260906103543 26 0 0.0 0.0 0.00 0.00 0.00 86 1014.2
20260906103151 26 0.0 0.0 0.00 0.00 0.00 86 1014.4
20260906103038 26 4 0.0 0.0 0.00 0.00 0.00 86 1014.1
20260906102537 26 0 0.0 0.0 0.00 0.00 0.00 87 1013.8
20260906102032 26 9 0.0 0.0 0.00 0.00 0.00 86 1014.0
20260906102004 26 0.0 0.0 0.00 0.00 0.00 86 1014.3
20260906101526 26 359 0.0 0.0 0.00 0.00 0.00 86 1013.8
20260906101021 26 0 0.0 0.0 0.00 0.00 0.00 86 1014.1
20260906100815 26 0.0 0.0 0.00 0.00 0.00 86 1014.3
20260906100517 26 0 0.0 0.0 0.00 0.00 0.00 86 1014.0
20260906100012 26 0 0.0 0.0 0.00 0.00 0.00 86 1014.0
20260906095525 26 0.0 0.0 0.00 0.00 0.00 85 1014.2
20260906095507 26 1 0.0 0.0 0.00 0.00 0.00 85 1014.0
20260906095003 26 0 0.0 0.0 0.00 0.00 0.00 85 1013.9
20260906094502 26 1 0.0 0.0 0.00 0.00 0.00 85 1013.9
20260906094441 26 0.0 0.0 0.00 0.00 0.00 85 1014.2
20260906093957 26 349 0.0 0.0 0.00 0.00 0.00 85 1013.9
20260906093453 26 1 0.0 0.0 0.00 0.00 0.00 85 1013.8
20260906093155 26 0.0 0.0 0.00 0.00 0.00 84 1013.8
20260906092948 26 3 0.0 0.0 0.00 0.00 0.00 84 1013.6
20260906092448 26 0 0.0 0.0 0.00 0.00 0.00 84 1013.7
20260906092003 26 0.0 0.0 0.00 0.00 0.00 83 1013.8
20260906091943 26 1 0.0 0.0 0.00 0.00 0.00 83 1013.6
20260906091439 26 7 0.0 0.0 0.00 0.00 0.00 83 1013.5
20260906090935 26 348 0.0 0.0 0.00 0.00 0.00 83 1013.6
20260906090816 26 0.0 0.0 0.00 0.00 0.00 83 1013.5
20260906090430 26 356 0.0 0.0 0.00 0.00 0.00 83 1013.2
20260906085930 26 333 0.0 0.0 0.00 0.00 0.00 83 1013.4
20260906085519 26 0.0 0.0 0.00 0.00 0.00 83 1013.7
20260906085429 26 353 0.0 0.0 0.00 0.00 0.00 83 1013.5
20260906084928 26 335 0.0 0.0 0.00 0.00 0.00 82 1013.3
20260906084435 26 0.0 0.0 0.00 0.00 0.00 82 1013.5
20260906084423 26 359 0.0 0.0 0.00 0.00 0.00 82 1013.1
20260906083922 26 323 0.0 0.0 0.00 0.00 0.00 82 1013.3
20260906083418 26 313 0.0 0.0 0.00 0.00 0.00 82 1013.3
20260906083249 27 0.0 0.0 0.00 0.00 0.00 82 1013.5
20260906082917 27 305 0.0 0.0 0.00 0.00 0.00 81 1013.3
20260906082412 27 352 0.0 0.0 0.00 0.00 0.00 81 1013.3
20260906081956 27 0.0 0.0 0.00 0.00 0.00 81 1013.5
20260906081908 27 0 0.0 0.0 0.00 0.00 0.00 80 1013.4
20260906081403 27 10 0.0 0.0 0.00 0.00 0.00 80 1013.1
20260906080900 27 4 0.0 0.0 0.00 0.00 0.00 80 1013.3
20260906080829 27 0.0 0.0 0.00 0.00 0.00 81 1013.7
20260906080356 27 14 0.0 0.0 0.00 0.00 0.00 80 1013.3
20260906075855 27 349 0.0 0.0 0.00 0.00 0.00 80 1013.5
20260906075534 27 0.0 0.0 0.00 0.00 0.00 79 1013.9
20260906075350 27 353 0.0 0.0 0.00 0.00 0.00 79 1013.4
20260906074846 27 355 0.0 0.0 0.00 0.00 0.00 79 1013.6
20260906074429 27 0.0 0.0 0.00 0.00 0.00 78 1013.7
20260906074340 27 3 0.0 0.0 0.00 0.00 0.00 78 1013.4
20260906073839 27 9 0.0 0.0 0.00 0.00 0.00 78 1013.5
20260906073334 27 2 0.0 0.0 0.00 0.00 0.00 78 1013.5
20260906073240 27 0.0 0.0 0.00 0.00 0.00 79 1013.7
20260906072831 27 1 0.0 0.0 0.00 0.00 0.00 78 1013.4
20260906072326 27 4 0.0 0.0 0.00 0.00 0.00 77 1013.3
20260906071949 27 0.0 0.0 0.00 0.00 0.00 77 1013.7
20260906071822 27 357 0.0 0.0 0.00 0.00 0.00 77 1013.5
20260906071321 27 357 0.0 0.0 0.00 0.00 0.00 77 1013.6
20260906070818 27 359 0.0 0.0 0.00 0.00 0.00 76 1013.6
20260906070803 27 0.0 0.0 0.00 0.00 0.00 76 1013.9
20260906070314 27 356 0.0 0.0 0.00 0.00 0.00 76 1013.6
20260906065814 27 0 0.0 0.0 0.00 0.00 0.00 76 1013.7
20260906065533 28 0.0 0.0 0.00 0.00 0.00 75 1014.1
20260906065309 28 13 0.0 0.0 0.00 0.00 0.00 75 1013.8
20260906064804 28 354 0.0 0.0 0.00 0.00 0.00 75 1013.7
20260906064425 28 0.0 0.0 0.00 0.00 0.00 75 1014.0
20260906064300 28 359 0.0 0.0 0.00 0.00 0.00 75 1013.6
20260906063755 28 344 0.0 0.0 0.00 0.00 0.00 75 1013.6
20260906063256 28 0.0 0.0 0.00 0.00 0.00 74 1014.0
20260906063251 28 4 0.0 0.0 0.00 0.00 0.00 74 1013.9
20260906062745 28 299 0.0 1.6 0.00 0.00 0.00 74 1013.7
20260906062244 28 356 0.0 0.0 0.00 0.00 0.00 73 1013.6
20260906061945 28 355 0.0 1.6 0.00 0.00 0.00 73 1013.9
20260906061740 28 2 0.0 0.0 0.00 0.00 0.00 73 1013.6
20260906061237 28 6 0.0 0.0 0.00 0.00 0.00 73 1013.9
20260906060819 28 0.0 0.0 0.00 0.00 0.00 73 1014.0
20260906060731 28 357 0.0 0.0 0.00 0.00 0.00 72 1013.7
20260906060229 28 7 0.0 0.0 0.00 0.00 0.00 72 1013.8
20260906055725 28 19 0.0 0.0 0.00 0.00 0.00 72 1013.9
20260906055611 28 0.0 0.0 0.00 0.00 0.00 71 1014.2
20260906055220 28 328 0.0 0.0 0.00 0.00 0.00 71 1014.0
20260906054715 28 344 0.0 0.0 0.00 0.00 0.00 70 1013.8
20260906054319 28 0.0 0.0 0.00 0.00 0.00 69 1014.1
20260906054210 28 17 0.0 0.0 0.00 0.00 0.00 70 1013.8
20260906053707 29 344 0.0 0.0 0.00 0.00 0.00 69 1014.1
20260906053254 29 0.0 0.0 0.00 0.00 0.00 68 1014.1
20260906053202 29 4 0.0 0.0 0.00 0.00 0.00 68 1013.8
20260906052657 29 345 0.0 0.0 0.00 0.00 0.00 68 1013.7
20260906052154 29 0 0.0 0.0 0.00 0.00 0.00 68 1013.7
20260906051939 29 0.0 0.0 0.00 0.00 0.00 68 1014.0
20260906051650 29 348 0.0 0.0 0.00 0.00 0.00 68 1013.7
20260906051149 29 342 0.0 0.0 0.00 0.00 0.00 69 1013.7
20260906050748 29 0.0 0.0 0.00 0.00 0.00 71 1013.8
20260906050645 29 9 0.0 0.0 0.00 0.00 0.00 71 1013.7
20260906050139 29 2 0.0 0.0 0.00 0.00 0.00 71 1013.6
20260906045638 29 5 0.0 0.0 0.00 0.00 0.00 71 1013.7
20260906045559 29 0.0 0.0 0.00 0.00 0.00 71 1013.9
20260906045133 29 302 0.0 1.6 0.00 0.00 0.00 70 1013.9
20260906044629 29 355 0.0 0.0 0.00 0.00 0.00 70 1013.7
20260906044349 29 0.0 0.0 0.00 0.00 0.00 70 1014.0
20260906044124 29 334 1.6 1.6 0.00 0.00 0.00 70 1013.7
20260906043620 29 349 0.0 0.0 0.00 0.00 0.00 70 1013.8
20260906043224 30 0.0 0.0 0.00 0.00 0.00 69 1014.2
20260906043116 30 346 0.0 0.0 0.00 0.00 0.00 69 1013.9
20260906042615 30 0 0.0 0.0 0.00 0.00 0.00 69 1013.8
20260906042109 30 23 0.0 0.0 0.00 0.00 0.00 69 1013.8
20260906042035 30 0.0 0.0 0.00 0.00 0.00 69 1014.0
20260906041606 30 355 0.0 0.0 0.00 0.00 0.00 69 1013.7
20260906041101 30 357 0.0 0.0 0.00 0.00 0.00 69 1013.8
20260906040742 30 0.0 0.0 0.00 0.00 0.00 69 1013.9
20260906040556 30 353 0.0 0.0 0.00 0.00 0.00 68 1013.6
20260906040051 30 1 0.0 0.0 0.00 0.00 0.00 69 1013.9
20260906035553 30 0.0 0.0 0.00 0.00 0.00 68 1014.0
20260906035547 30 348 0.0 0.0 0.00 0.00 0.00 68 1013.9
20260906035042 30 348 0.0 0.0 0.00 0.00 0.00 68 1013.9
20260906034542 30 10 0.0 0.0 0.00 0.00 0.00 68 1013.6
20260906034405 30 0.0 0.0 0.00 0.00 0.00 67 1013.9
20260906034037 30 39 0.0 0.0 0.00 0.00 0.00 67 1013.7
20260906033532 30 357 0.0 0.0 0.00 0.00 0.00 68 1013.7
20260906033218 30 0.0 0.0 0.00 0.00 0.00 68 1014.0
20260906033027 30 344 0.0 0.0 0.00 0.00 0.00 68 1013.6
20260906032524 30 341 0.0 0.0 0.00 0.00 0.00 67 1013.8
20260906032029 30 291 0.0 1.6 0.00 0.00 0.00 67 1014.1
20260906032024 30 25 0.0 0.0 0.00 0.00 0.00 67 1013.9
20260906031520 30 2 0.0 0.0 0.00 0.00 0.00 67 1013.8
20260906031015 30 348 0.0 0.0 0.00 0.00 0.00 66 1013.8
20260906030758 30 328 0.0 1.6 0.00 0.00 0.00 66 1014.1
20260906030515 30 1 0.0 1.6 0.00 0.00 0.00 66 1013.9
20260906030014 30 342 0.0 1.6 0.00 0.00 0.00 66 1014.0
20260906025552 30 0.0 0.0 0.00 0.00 0.00 66 1014.2
20260906025514 30 357 0.0 0.0 0.00 0.00 0.00 66 1013.8
20260906025012 30 238 1.6 1.6 0.00 0.00 0.00 65 1013.9
20260906024508 30 342 0.0 1.6 0.00 0.00 0.00 65 1013.8
20260906024403 30 356 0.0 1.6 0.00 0.00 0.00 65 1014.0
20260906024008 31 19 0.0 1.6 0.00 0.00 0.00 64 1013.8
20260906023504 31 5 0.0 0.0 0.00 0.00 0.00 64 1013.7
20260906023215 30 354 0.0 1.6 0.00 0.00 0.00 64 1013.8
20260906022958 30 1 0.0 1.6 0.00 0.00 0.00 64 1013.6
20260906022448 31 322 0.0 1.6 0.00 0.00 0.00 63 1013.4
20260906022028 31 359 0.0 1.6 0.00 0.00 0.00 62 1013.9
20260906021943 31 346 1.6 3.2 0.00 0.00 0.00 63 1013.4
20260906021438 31 295 0.0 0.0 0.00 0.00 0.00 62 1013.5
20260906020938 31 340 0.0 0.0 0.00 0.00 0.00 62 1013.4
20260906020738 31 0.0 0.0 0.00 0.00 0.00 61 1013.6
20260906020432 31 13 0.0 0.0 0.00 0.00 0.00 61 1013.3
20260906015927 31 19 0.0 0.0 0.00 0.00 0.00 61 1013.2
20260906015549 31 1 1.6 3.2 0.00 0.00 0.00 60 1013.4
20260906015426 31 354 0.0 0.0 0.00 0.00 0.00 60 1013.2
20260906014926 31 340 3.2 3.2 0.00 0.00 0.00 60 1013.2
20260906014426 31 326 0.0 0.0 0.00 0.00 0.00 60 1013.3
20260906014357 32 0.0 0.0 0.00 0.00 0.00 59 1013.4
20260906013922 32 5 0.0 0.0 0.00 0.00 0.00 59 1013.0
20260906013417 32 312 0.0 0.0 0.00 0.00 0.00 58 1013.2
20260906013230 32 359 1.6 3.2 0.00 0.00 0.00 58 1013.3
20260906012913 32 358 3.2 3.2 0.00 0.00 0.00 58 1013.0
20260906012408 32 57 0.0 1.6 0.00 0.00 0.00 57 1013.0
20260906012043 32 46 0.0 1.6 0.00 0.00 0.00 56 1012.9
20260906011907 32 346 0.0 1.6 0.00 0.00 0.00 56 1012.6
20260906011402 32 61 4.8 4.8 0.00 0.00 0.00 55 1012.5
20260906010858 33 323 0.0 0.0 0.00 0.00 0.00 54 1012.5
20260906010832 33 9 1.6 6.4 0.00 0.00 0.00 54 1012.7
20260906010354 33 342 0.0 0.0 0.00 0.00 0.00 54 1012.4
20260906005849 33 38 1.6 1.6 0.00 0.00 0.00 53 1012.2
20260906005540 34 281 1.6 4.8 0.00 0.00 0.00 52 1012.6
20260906005348 34 334 1.6 1.6 0.00 0.00 0.00 52 1012.4
20260906004847 35 25 1.6 1.6 0.00 0.00 0.00 50 1012.2
20260906004353 35 32 3.2 6.4 0.00 0.00 0.00 47 1012.4
20260906004347 35 51 0.0 0.0 0.00 0.00 0.00 48 1012.1
20260906003842 35 11 0.0 0.0 0.00 0.00 0.00 46 1011.9
20260906003338 35 37 1.6 1.6 0.00 0.00 0.00 46 1012.2
20260906003205 35 338 1.6 4.8 0.00 0.00 0.00 45 1012.3
20260906002833 35 20 0.0 0.0 0.00 0.00 0.00 45 1012.0
20260906002332 35 26 0.0 1.6 0.00 0.00 0.00 45 1012.0
20260906002019 35 12 0.0 1.6 0.00 0.00 0.00 45 1012.5
20260906001828 35 18 0.0 1.6 0.00 0.00 0.00 45 1012.2
20260906001323 35 51 1.6 1.6 0.00 0.00 0.00 45 1012.4
20260906000831 36 250 0.0 1.6 0.00 0.00 0.00 45 1012.3
20260906000819 35 353 1.6 3.2 0.00 0.00 0.00 45 1011.9
20260906000313 36 8 0.0 0.0 0.00 0.00 0.00 44 1011.9
20260905235808 36 29 0.0 1.6 0.00 0.00 0.00 44 1011.8
20260905235537 36 319 1.6 1.6 0.00 0.00 0.00 44 1012.3
20260905235308 36 307 1.6 1.6 0.00 0.00 0.00 44 1012.0
20260905234804 36 26 1.6 1.6 0.00 0.00 0.00 44 1011.8
20260905234412 36 0.0 0.0 0.00 0.00 0.00 44 1012.2
20260905234259 36 11 0.0 0.0 0.00 0.00 0.00 44 1011.8
20260905233754 36 202 0.0 0.0 0.00 0.00 0.00 44 1011.9
20260905233254 36 344 0.0 0.0 0.00 0.00 0.00 44 1011.8
20260905233201 36 0.0 0.0 0.00 0.00 0.00 43 1012.2
20260905232753 36 13 0.0 0.0 0.00 0.00 0.00 44 1011.9
20260905232249 36 0 0.0 0.0 0.00 0.00 0.00 43 1011.9
20260905232013 36 20 1.6 3.2 0.00 0.00 0.00 43 1012.3
20260905231745 36 356 1.6 3.2 0.00 0.00 0.00 43 1011.9